Ionia, MI

2:49 AM EDT on August 20, 2017 (GMT -0400)
Ionia

Weather History for KY70 - March, 2013

Change the Weather History Date:

Monday, March 18, 2013

  Actual Average (KGRR) Record (KGRR)
Temperature  
Mean Temperature 26 °F -  
Max Temperature 33 °F 43 °F 75 °F (1903)
Min Temperature 20 °F 25 °F 5 °F (1923)
Degree Days  
Heating Degree Days 38    
Moisture  
Dew Point 25 °F    
Average Humidity 89    
Maximum Humidity 100    
Minimum Humidity 76    
Precipitation  
Precipitation 0.04 in - - ()
Sea Level Pressure  
Sea Level Pressure 29.78 in    
Wind  
Wind Speed 11 mph (East)    
Max Wind Speed 18 mph    
Max Gust Speed 28 mph    
Visibility 6 miles    
Events Snow    
Averages and records for this station are not official NWS values.
T = Trace of Precipitation, MM = Missing Value Source: NWS Daily Summary

Daily Weather History Graph

Daily Weather History Graph

Search for Another Location

Airport or City:

Trip Planner

Search our weather history database for the weather conditions in past years. The results will help you decide how hot, cold, wet, or windy it might be!

Date:

Astronomy

Mar. 18, 2013 Rise Set
Actual Time 7:46 AM EDT 7:50 PM EDT
Civil Twilight 7:18 AM EDT 8:18 PM EDT
Nautical Twilight 6:45 AM EDT 8:51 PM EDT
Astronomical Twilight 6:11 AM EDT 9:25 PM EDT
Moon 11:37 AM EDT (3/18) 1:57 AM EDT (3/18)
Length of Visible Light 13h 00m
Length of Day
12h 03m
Waxing Crescent, 40% of the Moon is Illuminated
Mar 18
Waxing Crescent
Mar 19
First Quarter
Mar 27
Full
Apr 3
Last Quarter
Apr 10
New

Hourly Weather History & Observations

Time (EDT) Temp. Windchill Dew Point Humidity Pressure Visibility Wind Dir Wind Speed Gust Speed Precip Events Conditions
12:14 AM 23.0 °F 10.6 °F 16.5 °F 76% 30.13 in 10.0 mi East 13.8 mph 18.4 mph N/A   Clear
12:34 AM 22.6 °F 10.7 °F 16.3 °F 77% 30.12 in 10.0 mi East 12.7 mph - N/A   Clear
12:54 AM 22.5 °F 10.5 °F 16.5 °F 78% 30.12 in 10.0 mi East 12.7 mph - N/A   Clear
1:14 AM 22.1 °F 11.3 °F 16.5 °F 79% 30.11 in 10.0 mi East 10.4 mph - N/A   Clear
1:34 AM 21.7 °F 9.6 °F 16.5 °F 80% 30.10 in 10.0 mi East 12.7 mph - N/A   Clear
1:54 AM 21.7 °F 10.8 °F 16.2 °F 79% 30.10 in 10.0 mi East 10.4 mph - N/A   Clear
2:14 AM 21.2 °F 10.1 °F 16.0 °F 80% 30.09 in 10.0 mi East 10.4 mph - N/A   Clear
2:34 AM 21.0 °F 10.6 °F 15.8 °F 80% 30.08 in 10.0 mi East 9.2 mph - N/A   Clear
2:54 AM 20.8 °F 9.7 °F 15.8 °F 81% 30.08 in 10.0 mi East 10.4 mph - N/A   Clear
3:14 AM 20.7 °F 10.2 °F 15.8 °F 81% 30.07 in 10.0 mi East 9.2 mph - N/A   Clear
3:34 AM 20.3 °F 9.8 °F 15.8 °F 83% 30.06 in 10.0 mi East 9.2 mph - N/A   Clear
3:54 AM 20.3 °F 9.8 °F 15.8 °F 83% 30.05 in 10.0 mi East 9.2 mph - N/A   Clear
4:14 AM 20.3 °F 9.8 °F 16.2 °F 84% 30.03 in 10.0 mi East 9.2 mph - N/A   Clear
4:34 AM 20.3 °F 10.6 °F 16.3 °F 85% 30.02 in 10.0 mi East 8.1 mph - N/A   Clear
4:54 AM 20.3 °F 9.0 °F 16.3 °F 85% 30.00 in 10.0 mi ENE 10.4 mph - N/A   Clear
5:14 AM 20.3 °F 9.8 °F 16.3 °F 85% 30.00 in 10.0 mi ENE 9.2 mph - N/A   Clear
5:34 AM 20.1 °F 8.8 °F 16.3 °F 85% 29.99 in 10.0 mi ENE 10.4 mph - N/A   Clear
5:54 AM 20.3 °F 8.3 °F 16.3 °F 85% 29.97 in 10.0 mi ENE 11.5 mph - N/A   Clear
6:14 AM 20.7 °F 8.8 °F 16.5 °F 84% 29.97 in 10.0 mi ENE 11.5 mph - N/A   Clear
6:34 AM 20.8 °F 9.0 °F 16.7 °F 84% 29.95 in 10.0 mi ENE 11.5 mph 17.3 mph N/A   Clear
6:54 AM 20.8 °F 8.4 °F 16.5 °F 83% 29.95 in 10.0 mi ENE 12.7 mph 17.3 mph N/A   Clear
7:14 AM 21.2 °F 10.9 °F 16.9 °F 83% 29.94 in 10.0 mi ENE 9.2 mph 17.3 mph N/A   Clear
7:34 AM 21.2 °F 8.9 °F 17.1 °F 84% 29.93 in 10.0 mi East 12.7 mph 17.3 mph N/A   Clear
7:54 AM 21.6 °F 9.9 °F 17.6 °F 85% 29.92 in 10.0 mi ENE 11.5 mph 17.3 mph N/A   Clear
8:14 AM 21.9 °F 10.4 °F 18.0 °F 85% 29.90 in 10.0 mi ENE 11.5 mph 18.4 mph N/A   Clear
8:34 AM 22.1 °F 10.0 °F 18.5 °F 86% 29.88 in 10.0 mi East 12.7 mph 23.0 mph N/A   Clear
8:54 AM 23.0 °F 10.6 °F 19.2 °F 85% 29.87 in 10.0 mi East 13.8 mph 24.2 mph N/A   Clear
9:14 AM 23.7 °F 11.0 °F 19.9 °F 85% 29.86 in 10.0 mi East 15.0 mph 19.6 mph N/A   Scattered Clouds
9:34 AM 24.8 °F 12.9 °F 20.8 °F 85% 29.84 in 10.0 mi East 13.8 mph 19.6 mph N/A   Overcast
9:54 AM 26.4 °F 15.5 °F 21.7 °F 82% 29.84 in 10.0 mi East 12.7 mph 19.6 mph N/A   Overcast
10:14 AM 26.8 °F 14.9 °F 22.1 °F 83% 29.82 in 4.0 mi East 15.0 mph 23.0 mph N/A Snow Light Snow
10:34 AM 27.5 °F 15.0 °F 23.0 °F 83% 29.80 in 5.0 mi East 17.3 mph 23.0 mph N/A   Overcast
10:54 AM 28.2 °F 16.3 °F 23.4 °F 82% 29.77 in 7.0 mi East 16.1 mph 27.6 mph N/A   Overcast
11:14 AM 28.9 °F 18.2 °F 23.7 °F 81% 29.77 in 10.0 mi East 13.8 mph 20.7 mph N/A   Overcast
11:34 AM 29.1 °F 18.4 °F 24.1 °F 81% 29.75 in 3.0 mi East 13.8 mph - N/A Snow Light Snow
11:54 AM 30.2 °F 19.8 °F 25.0 °F 81% 29.74 in 4.0 mi East 13.8 mph 18.4 mph N/A Snow Light Snow
12:14 PM 30.6 °F 20.2 °F 25.3 °F 81% 29.73 in 5.0 mi East 13.8 mph - N/A Snow Light Snow
12:34 PM 31.1 °F 21.4 °F 26.8 °F 84% 29.73 in 1.5 mi East 12.7 mph 18.4 mph N/A Snow Light Snow
12:54 PM 31.1 °F 20.5 °F 28.0 °F 88% 29.71 in 1.5 mi East 15.0 mph - N/A Snow Light Snow
1:14 PM 31.5 °F 22.9 °F 28.8 °F 90% 29.70 in 1.5 mi East 10.4 mph - N/A Snow Light Snow
1:34 PM 31.6 °F 23.1 °F 28.9 °F 90% 29.69 in 5.0 mi East 10.4 mph - N/A   Overcast
1:54 PM 31.6 °F 21.6 °F 29.3 °F 91% 29.68 in 2.5 mi East 13.8 mph 17.3 mph N/A   Overcast
2:14 PM 31.6 °F 22.6 °F 30.2 °F 94% 29.66 in 2.0 mi East 11.5 mph 16.1 mph N/A   Overcast
2:34 PM 31.8 °F 22.3 °F 30.9 °F 96% 29.63 in 2.5 mi East 12.7 mph 18.4 mph N/A   Overcast
2:54 PM 31.8 °F 23.3 °F 31.1 °F 97% 29.61 in 4.0 mi East 10.4 mph - N/A   Overcast
3:14 PM 32.0 °F 24.2 °F 31.1 °F 96% 29.59 in 4.0 mi East 9.2 mph - N/A   Overcast
3:34 PM 32.0 °F 25.6 °F 31.6 °F 99% 29.60 in 3.0 mi East 6.9 mph - N/A   Overcast
3:54 PM 32.0 °F 25.6 °F 32.0 °F 100% 29.60 in 4.0 mi East 6.9 mph - N/A   Overcast
4:14 PM 32.4 °F 26.0 °F 32.0 °F 99% 29.59 in 4.0 mi ESE 6.9 mph - N/A   Overcast
4:34 PM 32.7 °F 28.3 °F 32.0 °F 97% 29.59 in 2.0 mi ESE 4.6 mph - N/A Snow Light Snow
4:54 PM 32.9 °F 28.5 °F 32.4 °F 98% 29.58 in 1.8 mi ESE 4.6 mph - 0.01 in Snow Light Snow
5:14 PM 32.9 °F 29.8 °F 32.7 °F 99% 29.57 in 1.2 mi ESE 3.5 mph - 0.01 in Snow Light Snow
5:34 PM 32.9 °F 28.5 °F 32.9 °F 100% 29.56 in 1.8 mi East 4.6 mph - 0.01 in Snow Light Snow
5:54 PM 32.9 °F - 32.9 °F 100% 29.56 in 2.0 mi Calm Calm - 0.01 in   Overcast
6:14 PM 32.9 °F - 32.9 °F 100% 29.56 in 1.5 mi Calm Calm - N/A Snow Light Snow
6:34 PM 32.9 °F - 32.9 °F 100% 29.56 in 1.2 mi Calm Calm - N/A Snow Light Snow
6:54 PM 32.9 °F - 32.9 °F 100% 29.55 in 0.5 mi Calm Calm - 0.01 in Snow Light Snow
7:14 PM 32.9 °F - 32.9 °F 100% 29.55 in 1.0 mi Calm Calm - N/A Snow Light Snow
7:34 PM 32.7 °F - 32.7 °F 100% 29.55 in 1.2 mi Calm Calm - 0.01 in Snow Light Snow
7:54 PM 32.9 °F 29.8 °F 32.9 °F 100% 29.55 in 0.8 mi SSW 3.5 mph - 0.01 in Snow Light Snow
8:14 PM 32.9 °F 27.5 °F 32.9 °F 100% 29.56 in 1.8 mi SW 5.8 mph - N/A Snow Light Snow
8:34 PM 32.9 °F 27.5 °F 32.9 °F 100% 29.56 in 2.5 mi SW 5.8 mph - N/A Snow Light Snow
8:54 PM 33.1 °F 24.9 °F 33.1 °F 100% 29.56 in 2.5 mi WSW 10.4 mph - N/A Snow Light Snow
9:14 PM 33.3 °F 22.8 °F 33.3 °F 100% 29.56 in 4.0 mi WSW 16.1 mph - N/A Snow Light Snow
9:34 PM 33.1 °F 22.6 °F 32.9 °F 99% 29.56 in 5.0 mi WSW 16.1 mph 20.7 mph N/A Snow Light Snow
9:54 PM 33.3 °F 22.5 °F 32.5 °F 97% 29.56 in 7.0 mi WSW 17.3 mph 23.0 mph N/A   Overcast
10:14 PM 33.4 °F 22.3 °F 32.4 °F 96% 29.57 in 10.0 mi WSW 18.4 mph 25.3 mph N/A   Overcast
10:34 PM 33.8 °F 23.9 °F 32.2 °F 94% 29.57 in 10.0 mi WSW 15.0 mph 23.0 mph N/A   Overcast
10:54 PM 33.8 °F 22.8 °F 32.0 °F 93% 29.57 in 10.0 mi WSW 18.4 mph - N/A   Overcast
11:14 PM 33.8 °F 23.5 °F 32.0 °F 93% 29.57 in 10.0 mi WSW 16.1 mph 23.0 mph N/A   Overcast
11:54 PM 33.8 °F 23.5 °F 32.5 °F 95% 29.57 in 5.0 mi WSW 16.1 mph 21.9 mph N/A   Overcast